IRIDIUM 154

Last updated on Sun Jun 21 2026 00:03:14 GMT+0000 (Coordinated Universal Time)

1 43574U 18061F 26171.44095338 .00000165 00000+0 52021-4 0 9997 2 43574 86.3960 55.4465 0002157 88.8669 271.2774 14.34217651413873
UTC large
Height (km)
Speed (km/s)
/
Latitude / Longitude
Inclination (degrees)
Orbital Period (minutes)
Azimuth
Elevation
Range (km)
Doppler Factor

Next 0 passes for location: London (51.5072 / 0.1276)

No passes found over London.
IRIDIUM 154